TimeCST,TemperatureF,Dew PointF,Humidity,Sea Level PressureIn,VisibilityMPH,Wind Direction,Wind SpeedMPH,Gust SpeedMPH,PrecipitationIn,Events,Conditions,WindDirDegrees,DateUTC
12:56 AM,46.9,37.0,68,30.18,10.0,East,4.6,-,N/A,,Clear,80,2013-01-08 06:56:00
1:56 AM,45.0,37.0,74,30.18,10.0,NE,3.5,-,N/A,,Clear,40,2013-01-08 07:56:00
2:56 AM,46.9,39.9,77,30.17,10.0,NE,4.6,-,N/A,,Mostly Cloudy,40,2013-01-08 08:56:00
3:56 AM,46.9,39.9,77,30.17,10.0,East,5.8,-,N/A,,Overcast,80,2013-01-08 09:56:00
4:25 AM,48.2,39.2,71,30.21,10.0,East,6.9,-,N/A,,Overcast,90,2013-01-08 10:25:00
4:34 AM,48.2,39.2,71,30.21,10.0,East,5.8,-,N/A,,Overcast,80,2013-01-08 10:34:00
4:56 AM,48.0,39.9,74,30.17,10.0,ENE,6.9,-,N/A,,Overcast,60,2013-01-08 10:56:00
5:56 AM,48.0,41.0,77,30.19,10.0,ENE,5.8,-,N/A,,Overcast,70,2013-01-08 11:56:00
6:37 AM,48.2,42.8,82,30.24,10.0,East,4.6,-,N/A,,Overcast,80,2013-01-08 12:37:00
6:56 AM,50.0,42.1,74,30.21,10.0,ENE,5.8,-,N/A,,Overcast,70,2013-01-08 12:56:00
7:56 AM,51.1,43.0,74,30.22,10.0,East,8.1,-,N/A,,Overcast,80,2013-01-08 13:56:00
8:19 AM,51.8,44.6,76,30.26,10.0,East,8.1,-,N/A,,Overcast,80,2013-01-08 14:19:00
8:51 AM,51.8,44.6,76,30.27,10.0,ESE,8.1,-,N/A,,Overcast,110,2013-01-08 14:51:00
8:56 AM,53.1,46.0,77,30.24,10.0,East,5.8,-,N/A,,Overcast,90,2013-01-08 14:56:00
9:25 AM,55.4,46.4,72,30.28,10.0,East,5.8,-,N/A,,Overcast,90,2013-01-08 15:25:00
9:56 AM,57.0,46.9,69,30.25,10.0,East,6.9,-,N/A,,Overcast,100,2013-01-08 15:56:00
10:56 AM,57.9,48.0,70,30.23,10.0,ENE,4.6,-,N/A,,Overcast,70,2013-01-08 16:56:00
11:56 AM,60.1,50.0,69,30.21,10.0,East,6.9,-,N/A,,Overcast,80,2013-01-08 17:56:00
12:21 PM,60.8,50.0,68,30.23,10.0,ESE,4.6,-,N/A,,Overcast,120,2013-01-08 18:21:00
12:56 PM,61.0,52.0,72,30.18,10.0,East,4.6,-,N/A,,Overcast,90,2013-01-08 18:56:00
1:30 PM,62.6,51.8,68,30.21,10.0,Variable,5.8,-,N/A,,Overcast,0,2013-01-08 19:30:00
1:56 PM,63.0,52.0,67,30.16,10.0,ESE,8.1,-,N/A,,Overcast,110,2013-01-08 19:56:00
2:39 PM,64.4,51.8,64,30.20,10.0,ENE,6.9,-,N/A,,Mostly Cloudy,60,2013-01-08 20:39:00
2:56 PM,64.9,54.0,68,30.16,10.0,East,9.2,-,N/A,,Overcast,90,2013-01-08 20:56:00
3:08 PM,64.4,53.6,68,30.19,10.0,ENE,8.1,-,N/A,,Overcast,70,2013-01-08 21:08:00
3:56 PM,64.0,55.9,75,30.15,10.0,East,9.2,-,N/A,,Overcast,90,2013-01-08 21:56:00
4:16 PM,62.6,55.4,77,30.19,10.0,East,5.8,-,N/A,,Overcast,90,2013-01-08 22:16:00
4:56 PM,63.0,55.0,75,30.16,10.0,ENE,8.1,-,N/A,,Overcast,70,2013-01-08 22:56:00
5:05 PM,62.6,55.4,77,30.20,10.0,ENE,6.9,-,N/A,,Overcast,60,2013-01-08 23:05:00
5:56 PM,61.0,54.0,78,30.16,9.0,ENE,8.1,-,N/A,,Overcast,60,2013-01-08 23:56:00
6:56 PM,60.1,53.1,78,30.16,10.0,ENE,8.1,-,N/A,,Overcast,60,2013-01-09 00:56:00
7:19 PM,60.8,51.8,72,30.19,10.0,NE,5.8,-,N/A,,Mostly Cloudy,40,2013-01-09 01:19:00
7:47 PM,60.8,51.8,72,30.19,10.0,ENE,4.6,-,N/A,,Mostly Cloudy,70,2013-01-09 01:47:00
7:56 PM,59.0,52.0,78,30.16,10.0,ENE,5.8,-,N/A,,Mostly Cloudy,70,2013-01-09 01:56:00
8:14 PM,59.0,51.8,77,30.19,10.0,ENE,5.8,-,N/A,,Mostly Cloudy,60,2013-01-09 02:14:00
8:56 PM,59.0,52.0,78,30.14,10.0,East,8.1,-,N/A,,Scattered Clouds,80,2013-01-09 02:56:00
9:51 PM,62.6,53.6,72,30.20,10.0,East,6.9,-,N/A,,Mostly Cloudy,100,2013-01-09 03:51:00
9:56 PM,62.1,54.0,75,30.17,10.0,East,6.9,-,N/A,,Mostly Cloudy,100,2013-01-09 03:56:00
10:31 PM,62.6,55.4,77,30.20,10.0,East,9.2,-,N/A,,Overcast,90,2013-01-09 04:31:00
10:47 PM,62.6,55.4,77,30.20,10.0,East,10.4,-,N/A,,Mostly Cloudy,90,2013-01-09 04:47:00
10:56 PM,63.0,55.0,75,30.16,10.0,East,11.5,-,N/A,,Overcast,90,2013-01-09 04:56:00
11:06 PM,62.6,55.4,77,30.20,10.0,East,9.2,-,N/A,,Overcast,80,2013-01-09 05:06:00
11:27 PM,62.6,55.4,77,30.20,10.0,East,10.4,-,N/A,,Mostly Cloudy,80,2013-01-09 05:27:00
11:43 PM,62.6,55.4,77,30.21,10.0,East,10.4,-,N/A,,Mostly Cloudy,90,2013-01-09 05:43:00
11:56 PM,63.0,55.0,75,30.16,10.0,East,9.2,-,N/A,,Mostly Cloudy,80,2013-01-09 05:56:00